Torna al catalogo

STARLINK-3043

AttivoComunicazioniVLEO
NORAD 49179·PAYLOAD·🇺🇸 United States

Lanciato Sep 14, 2021 da Vandenberg Space Force Base

Loading…

Prossimi Passaggi (prossime 24 ore)

TLE

AggiornatoSource: CelesTrak SupGP

Epoca: Sep 14, 2026, 21:57 UTC

1 49179C 21082BB  26257.91506944 -.00023905  00000+0 -20035-2 0  2572
2 49179  70.0008 137.3425 0002375 259.8249 120.8525 14.98340735    16

Traccia STARLINK-3043 in tempo reale con AllMySat

Download on the App Store